Torna al catalogo

STARLINK-36135

AttivoComunicazioniVLEO
NORAD 66986·PAYLOAD·🇺🇸 United States

Lanciato Dec 8, 2025 da Cape Canaveral Space Force Station

Loading…

Prossimi Passaggi (prossime 24 ore)

TLE

AggiornatoSource: CelesTrak SupGP

Epoca: Sep 14, 2026, 21:02 UTC

1 66986C 25288AD  26257.87687500  .00060673  00000+0  21973-2 0  2575
2 66986  43.0040  35.0629 0001448 276.8243 334.7561 15.27552416    10

Traccia STARLINK-36135 in tempo reale con AllMySat

Download on the App Store